Location: Austin
(30.3000°N, 97.7500°W)
Time: 00:20:23
(UTC-05:00)

JB-3 - Pass Details

Date: 01 August 2025
Orbit: 485 x 533 km, 97.3° (Epoch: 16 April)

Event Time Altitude Azimuth Distance (km) Brightness Sun altitude
Rises 04:10:39 0° 114° (ESE) 2,651 8.0 -29.3°
Enters shadow 05:23:51 -45° 171° (S) 9,695 10.6 -17.3°
Maximum altitude 05:48:23 48° 261° (W) 695 4.4 -12.8°
